Location: Goettingen
(51.5300°N, 9.9433°E)
Time: 11:37:17
(UTC+02:00)

ISS - Pass Details

Date: 13 May 2025
Orbit: 416 x 419 km, 51.6° (Epoch: 18 May)

Event Time Altitude Azimuth Distance (km) Brightness Sun altitude
Rises 22:11:54 0° 248° (WSW) 2,355 0.3 -9.1°
Reaches altitude 10° 22:14:00 10° 245° (WSW) 1,493 -0.7 -9.3°
Maximum altitude 22:17:19 65° 164° (SSE) 461 -3.8 -9.7°
Drops below altitude 10° 22:20:39 10° 81° (E) 1,496 -1.3 -10.0°
Sets 22:22:45 0° 78° (ENE) 2,361 -0.2 -10.3°
